{"data":{"norad_id":53674,"epoch":"2026-09-20T21:36:50.204448Z","epoch_age_seconds":47063,"freshness":"FRESH","line1":"1 53674U 22105AC  26263.90058107 -.00000577  00000+0 -36068-4 0  9991","line2":"2 53674  97.2839 137.6596 0001894  84.6927 275.4516 15.05652239222600","mean_motion":15.05652239,"eccentricity":0.0001894,"inclination_deg":97.2839,"raan_deg":137.6596,"arg_perigee_deg":84.6927,"mean_anomaly_deg":275.4516,"bstar":-3.6068e-5,"rev_number":22260,"period_min":95.639614693257,"perigee_km":548.19219087751,"apogee_km":550.81638139669,"semimajor_km":6927.6412861371,"source":"CELESTRAK","updated_at":"2026-09-21T09:00:32.977164Z"}}